Hourly Data Report for June 07, 2012

All times are specified in Local Standard Time (LST). Add 1 hour to adjust for Daylight Saving Time where and when it is observed.

SAINT JOHN A
NEW BRUNSWICK

45°18'58.000" N
65°53'24.000" W
108.80 m
8104901
71609
YSJ

Download Data

Hourly Data (June 2012)
Hourly Data Report for June 7, 2012
Temp Definition
°C
Dew Point Temp Definition
°C
Rel Hum Definition
%
Wind Dir Definition
10's deg

Wind Spd Definition
km/h
Visibility Definition
km
Stn Press Definition
kPa
Hmdx Definition


Wind Chill Definition


Weather Definition


TIME
00:00 Legend Double Dagger 8.0 6.1 88 35 26 10.0 100.17     LegendNANA
01:00 Legend Double Dagger 7.6 6.2 91 35 23 10.0 100.15     LegendNANA
02:00 Legend Double Dagger 7.4 6.0 91 36 17 10.0 100.16     Cloudy
03:00 Legend Double Dagger 7.2 6.6 96 34 10 10.0 100.15     Rain
04:00 Legend Double Dagger 7.1 6.7 97 35 17 10.0 100.13     Rain
05:00 Legend Double Dagger 7.0 6.4 96 36 17 10.0 100.13     Cloudy
06:00 Legend Double Dagger 7.2 6.3 94 36 14 10.0 100.16     LegendNANA
07:00 Legend Double Dagger 7.6 6.4 92 0 13 10.0 100.18     LegendNANA
08:00 Legend Double Dagger 8.8 6.6 86 35 12 10.0 100.18     Cloudy
09:00 Legend Double Dagger 9.9 7.0 82 33 11 10.0 100.15     LegendNANA
10:00
11:00 Legend Double Dagger 13.7 7.1 64 29 12 10.0 100.04     Mostly Cloudy
12:00 Legend Double Dagger 15.6 7.2 57 27 19 10.0 99.98     LegendNANA
13:00 Legend Double Dagger 15.6 7.4 58 24 13 10.0 99.94     LegendNANA
14:00 Legend Double Dagger 16.6 7.6 55 23 19 10.0 99.86     Mostly Cloudy
15:00 Legend Double Dagger 16.3 7.9 57 21 26 10.0 99.79     LegendNANA
16:00 Legend Double Dagger 16.5 8.0 57 22 23 10.0 99.78     LegendNANA
17:00 Legend Double Dagger 17.5 9.0 57 21 20 10.0 99.74     Mostly Cloudy
18:00 Legend Double Dagger 15.7 8.8 63 21 20 10.0 99.78     LegendNANA
19:00 Legend Double Dagger 13.4 9.1 75 17 9 10.0 99.85     LegendNANA
20:00 Legend Double Dagger 11.2 8.8 85   0 10.0 99.85     Mostly Cloudy
21:00 Legend Double Dagger 9.1 7.9 92   0 10.0 99.89     LegendNANA
22:00 Legend Double Dagger 7.4 6.8 96 21 5 10.0 99.89     LegendNANA
23:00 Legend Double Dagger 7.5 7.1 97 20 5 10.0 99.87     Mainly Clear

Notes on Data Quality.

Legend

  • E = Estimated
  • M = Missing
  • NA = Not Available
  • ‡ = Partner data that is not subject to review by the National Climate Archives
Date modified: